Date_and_time,latitude,longitude,wind_speed,RelWindDirFrom,WindDirFrom,air_pressure,air_temperature,relative_humidity,Temp,platform_speed_wrt_ground,air_pressure_at_mean_sea_level,platform_orientation
2018-08-30 23:50,50.6304383333333,-96.980765,23.0,30.5,175,974.05,25.9,50,19.13,0.0,999.13,0.0
2018-08-31 00:00,50.6304383333333,-96.980765,20.4,28.1,174,974.14,25.6,51,19.16,0.0,999.22,165.5
2018-08-31 00:10,50.63044,-96.9807666666667,22.4,27.6,172,973.84,25.6,52,19.17,0.0,998.90,165.5
2018-08-31 00:20,50.630455,-96.980765,22.9,30.7,172,973.66,25.3,53,19.19,0.0,998.73,165.5
2018-08-31 00:30,50.6304283333333,-96.9807616666667,23.1,30.1,177,973.88,25.3,53,19.21,0.0,998.94,165.5
2018-08-31 00:40,50.6304333333333,-96.9807616666667,22.7,29.4,177,973.94,25.3,53,19.22,0.0,999.01,165.5
2018-08-31 00:50,50.63044,-96.9807633333333,20.4,27.0,176,974.07,25.0,54,19.23,0.0,999.15,165.5
2018-08-31 01:00,50.6304433333333,-96.9807633333333,22.7,31.6,176,974.09,24.8,55,19.24,0.0,999.19,360.0
2018-08-31 01:10,50.630445,-96.980765,19.8,26.5,183,974.40,24.3,61,19.24,0.0,999.52,360.0
2018-08-31 01:20,50.630445,-96.980765,16.7,29.4,183,974.49,23.7,61,19.24,0.0,999.66,360.0
2018-08-31 01:30,50.630445,-96.980765,20.7,31.7,167,974.10,24.0,59,19.24,0.0,999.25,360.0
2018-08-31 01:40,50.630445,-96.980765,12.9,21.9,206,974.90,23.7,61,19.24,0.0,1000.08,360.0
2018-08-31 01:50,50.63045,-96.98078,12.7,22.2,210,974.91,24.0,60,19.25,0.0,1000.09,360.0
2018-08-31 02:00,50.6304433333333,-96.9807716666667,21.0,34.0,189,974.55,23.7,60,19.26,0.0,999.74,270.0
2018-08-31 02:10,50.630445,-96.9807666666667,24.0,31.7,182,974.38,23.4,62,19.26,0.0,999.59,270.0
2018-08-31 02:20,50.630445,-96.980765,21.6,28.6,185,974.68,22.9,65,19.27,0.0,999.91,270.0
2018-08-31 02:30,50.6304433333333,-96.980765,21.6,27.7,187,974.87,22.9,64,19.27,0.0,1000.11,270.0
2018-08-31 02:40,50.630445,-96.9807633333333,25.3,33.5,185,974.86,23.2,62,19.27,0.0,1000.10,270.0
2018-08-31 02:50,50.630445,-96.9807633333333,19.8,30.9,186,975.35,23.1,63,19.27,0.0,1000.62,270.0
2018-08-31 03:00,50.6304466666667,-96.9807633333333,18.6,24.9,184,975.60,22.8,65,19.28,0.0,1000.91,38.0
2018-08-31 03:10,50.6304466666667,-96.9807616666667,19.8,25.9,185,975.64,22.7,65,19.28,0.0,1000.98,38.0
2018-08-31 03:20,50.6304483333333,-96.9807616666667,16.4,23.9,184,975.88,22.5,67,19.28,0.0,1001.22,38.0
2018-08-31 03:30,50.6304483333333,-96.9807616666667,15.4,20.3,192,976.06,22.4,67,19.28,0.0,1001.42,38.0
2018-08-31 03:40,50.6304483333333,-96.9807633333333,13.2,20.0,193,976.08,22.2,69,19.34,0.0,1001.44,38.0
2018-08-31 03:50,50.6304483333333,-96.9807633333333,13.4,18.2,196,976.15,22.0,70,19.34,0.0,1001.53,38.0
2018-08-31 04:00,50.6304483333333,-96.9807633333333,14.3,20.1,194,976.18,21.9,71,19.34,0.0,1001.57,360.0
2018-08-31 04:10,50.630435,-96.9807616666667,12.4,16.6,201,976.33,21.9,71,19.33,0.0,1001.76,360.0
2018-08-31 04:20,50.630445,-96.9807616666667,10.2,15.3,211,976.57,21.8,72,19.42,0.0,1002.01,360.0
2018-08-31 04:30,50.6304466666667,-96.9807633333333,7.8,11.5,218,976.73,21.6,74,19.44,0.0,1002.17,360.0
2018-08-31 04:40,50.6304433333333,-96.980765,6.5,10.6,215,976.84,21.4,75,19.46,0.0,1002.30,360.0
2018-08-31 04:50,50.6304416666667,-96.9807666666667,7.9,11.3,204,976.87,21.3,76,19.47,0.0,1002.34,360.0
2018-08-31 05:00,50.6304416666667,-96.9807633333333,6.7,9.9,208,976.94,21.2,77,19.51,0.0,1002.42,90.0
2018-08-31 05:10,50.6304416666667,-96.9807633333333,4.9,6.8,207,977.03,21.1,78,19.50,0.0,1002.53,90.0
2018-08-31 05:20,50.6304433333333,-96.9807633333333,4.4,6.9,246,977.39,20.9,80,19.50,0.0,1002.91,90.0
2018-08-31 05:30,50.630445,-96.9807633333333,2.6,7.8,275,977.59,20.7,82,19.49,0.0,1003.14,90.0
2018-08-31 05:40,50.6304433333333,-96.9808133333333,1.2,3.9,290,977.68,20.7,83,19.48,0.0,1003.23,90.0
2018-08-31 05:50,50.6304433333333,-96.9807866666667,2.3,3.7,305,977.68,20.8,78,19.46,0.0,1003.23,90.0
2018-08-31 06:00,50.6304433333333,-96.9807783333333,3.7,5.6,308,977.65,21.2,65,19.44,0.0,1003.19,246.4
2018-08-31 06:10,50.630445,-96.9807733333333,3.7,4.9,307,977.60,21.2,63,19.43,0.0,1003.14,246.4
2018-08-31 06:20,50.630445,-96.980775,4.0,5.8,309,977.57,21.0,60,19.46,0.0,1003.13,246.4
2018-08-31 06:30,50.630445,-96.9807733333333,2.8,4.7,295,977.60,20.7,61,19.46,0.0,1003.17,246.4
2018-08-31 06:40,50.6304516666667,-96.9807733333333,3.7,5.0,292,977.64,20.3,62,19.45,0.0,1003.24,246.4
2018-08-31 06:50,50.630445,-96.9807683333333,3.9,4.6,282,977.63,19.8,64,19.44,0.0,1003.26,246.4
2018-08-31 07:00,50.630445,-96.9807733333333,4.3,5.2,279,977.56,19.3,68,19.43,0.0,1003.21,192.6
2018-08-31 07:10,50.6304416666667,-96.9807683333333,5.1,7.0,291,977.49,19.1,67,19.43,0.0,1003.16,192.6
2018-08-31 07:20,50.6304416666667,-96.9807666666667,4.9,7.2,292,977.46,19.2,62,19.42,0.0,1003.13,192.6
2018-08-31 07:30,50.6304083333333,-96.9807616666667,5.5,7.7,296,977.49,19.1,60,19.41,0.0,1003.17,192.6
2018-08-31 07:40,50.6304333333333,-96.98076,5.1,7.2,296,977.41,18.9,59,19.41,0.0,1003.08,192.6
2018-08-31 07:50,50.630445,-96.98077,5.3,7.5,293,977.36,18.7,60,19.43,0.0,1003.03,192.6
2018-08-31 08:00,50.630445,-96.98077,5.1,6.7,290,977.34,18.4,61,19.42,0.0,1003.02,0.0
2018-08-31 08:10,50.6304416666667,-96.98077,5.2,6.6,285,977.36,17.9,65,19.41,0.0,1003.07,0.0
2018-08-31 08:20,50.63043,-96.9807683333333,5.1,6.3,282,977.34,17.4,69,19.41,0.0,1003.09,0.0
2018-08-31 08:30,50.6304766666667,-96.9807816666667,5.3,6.6,278,977.43,17.0,70,19.40,0.0,1003.22,0.0
2018-08-31 08:40,50.6304433333333,-96.980765,5.6,7.3,279,977.45,16.6,73,19.39,0.0,1003.27,0.0
2018-08-31 08:50,50.630445,-96.980765,5.9,8.0,273,977.62,16.4,74,19.39,0.0,1003.48,0.0
2018-08-31 09:00,50.630445,-96.9807716666667,5.8,7.8,281,977.55,16.2,73,19.37,0.0,1003.43,90.0
2018-08-31 09:10,50.630445,-96.98077,5.4,7.2,280,977.55,16.0,73,19.35,0.0,1003.44,90.0
2018-08-31 09:20,50.6304466666667,-96.9807683333333,6.1,7.8,276,977.69,15.7,74,19.32,0.0,1003.60,90.0
2018-08-31 09:30,50.63041,-96.980785,5.6,7.6,274,977.72,15.4,76,19.32,0.0,1003.65,90.0
2018-08-31 09:40,50.6304383333333,-96.9807683333333,6.2,7.8,272,977.79,15.2,76,19.31,0.0,1003.74,90.0
2018-08-31 09:50,50.6304416666667,-96.980765,6.0,7.9,271,978.02,15.0,77,19.30,0.0,1004.00,90.0
2018-08-31 10:00,50.6304433333333,-96.9807666666667,5.7,7.6,269,978.17,15.0,76,19.29,0.0,1004.18,90.0
2018-08-31 10:10,50.6304416666667,-96.9807633333333,6.0,7.9,268,978.19,14.9,76,19.29,0.0,1004.22,90.0
2018-08-31 10:20,50.6304433333333,-96.9807616666667,6.1,7.8,272,978.19,14.8,77,19.28,0.0,1004.25,90.0
2018-08-31 10:30,50.6304416666667,-96.98076,5.9,7.8,275,978.19,14.5,78,19.27,0.0,1004.28,90.0
2018-08-31 10:40,50.6304416666667,-96.9807633333333,6.0,8.0,271,978.28,14.4,78,19.23,0.0,1004.38,90.0
2018-08-31 10:50,50.6304416666667,-96.9807616666667,6.3,7.9,272,978.28,14.3,77,19.22,0.0,1004.40,90.0
2018-08-31 11:00,50.6304416666667,-96.9807616666667,6.2,7.8,271,978.38,14.4,77,19.21,0.0,1004.51,90.0
2018-08-31 11:10,50.63044,-96.98078,6.2,8.5,268,978.61,14.4,76,19.20,0.0,1004.75,90.0
2018-08-31 11:20,50.630435,-96.98077,6.2,8.5,265,978.96,14.5,75,19.20,0.0,1005.12,90.0
2018-08-31 11:30,50.6304366666667,-96.9807716666667,6.2,9.3,267,978.89,14.8,74,19.20,0.0,1005.04,90.0
2018-08-31 11:40,50.6304383333333,-96.98077,5.8,8.3,262,978.71,15.0,73,19.20,0.0,1004.86,90.0
2018-08-31 11:50,50.6304383333333,-96.98077,5.4,7.8,259,978.74,15.0,74,19.18,0.0,1004.90,90.0
2018-08-31 12:00,50.6304383333333,-96.9807683333333,5.2,6.6,250,978.85,14.7,76,19.17,0.0,1005.02,90.0
2018-08-31 12:10,50.6304366666667,-96.9807666666667,6.3,8.1,252,978.87,14.5,77,19.15,0.0,1005.06,90.0
2018-08-31 12:20,50.6304366666667,-96.980765,6.5,8.9,257,978.84,14.9,75,19.13,0.0,1005.03,90.0
2018-08-31 12:30,50.6304366666667,-96.980765,6.0,8.9,252,978.86,14.9,76,19.12,0.0,1005.04,90.0
2018-08-31 12:40,50.6304366666667,-96.980765,5.7,8.2,255,978.83,15.0,76,19.12,0.0,1005.02,90.0
2018-08-31 12:50,50.6304366666667,-96.980765,4.7,7.2,248,978.86,15.0,76,19.12,0.0,1005.05,90.0
2018-08-31 13:00,50.6304383333333,-96.980765,5.0,6.2,234,979.03,14.9,78,19.12,0.0,1005.23,90.0
2018-08-31 13:10,50.6304383333333,-96.9807633333333,5.3,6.7,236,979.06,15.0,78,19.12,0.0,1005.24,90.0
2018-08-31 13:20,50.6304383333333,-96.9807633333333,5.2,6.6,232,978.93,15.1,78,19.11,0.0,1005.09,90.0
2018-08-31 13:30,50.6304383333333,-96.9807633333333,5.4,7.1,231,978.89,15.1,79,19.10,0.0,1005.04,90.0
2018-08-31 13:40,50.6304383333333,-96.9807633333333,4.9,6.7,220,978.85,15.2,80,19.09,0.0,1004.99,90.0
2018-08-31 13:50,50.6304483333333,-96.9807733333333,4.2,5.5,229,978.77,15.4,80,19.09,0.0,1004.92,90.0
2018-08-31 14:00,50.630445,-96.9807683333333,3.8,5.5,223,978.68,15.6,79,19.08,0.0,1004.82,270.0
2018-08-31 14:10,50.6304233333333,-96.98078,4.7,6.2,225,978.76,15.8,77,19.08,0.0,1004.88,270.0
2018-08-31 14:20,50.6304316666667,-96.980775,4.9,6.7,245,978.73,16.1,75,19.07,0.0,1004.84,270.0
2018-08-31 14:30,50.6304333333333,-96.98077,5.0,6.8,246,978.49,16.2,74,19.07,0.0,1004.58,270.0
2018-08-31 14:40,50.630435,-96.9807683333333,4.2,6.5,250,978.28,16.4,74,19.06,0.0,1004.35,270.0
2018-08-31 14:50,50.6304366666667,-96.9807583333333,4.3,6.7,240,978.31,16.7,72,19.06,0.0,1004.38,270.0
2018-08-31 15:00,50.63044,-96.980765,4.7,7.8,238,978.34,17.3,69,19.05,0.0,1004.37,0.0
2018-08-31 15:10,50.6304416666667,-96.9807666666667,5.0,7.0,238,978.28,17.8,66,19.05,0.0,1004.29,0.0
2018-08-31 15:20,50.6304466666667,-96.9807666666667,4.7,6.0,227,978.40,18.2,66,19.03,0.0,1004.39,0.0
2018-08-31 15:30,50.6304483333333,-96.9807666666667,4.8,6.6,225,978.52,18.5,64,19.03,0.0,1004.50,0.0
2018-08-31 15:40,50.630455,-96.9807816666667,3.9,6.0,227,978.62,19.0,62,19.04,0.0,1004.57,0.0
2018-08-31 15:50,50.6304483333333,-96.980775,5.5,7.9,252,978.73,19.9,56,19.06,0.0,1004.63,0.0
2018-08-31 16:00,50.6304316666667,-96.9807666666667,6.0,9.4,247,978.77,20.6,51,19.08,0.0,1004.63,360.0
2018-08-31 16:10,50.6304466666667,-96.9807616666667,5.5,8.1,238,978.88,21.0,49,19.09,0.0,1004.72,360.0
2018-08-31 16:20,50.6304333333333,-96.9807483333333,6.0,8.6,234,978.93,21.5,46,19.14,0.0,1004.74,360.0
2018-08-31 16:30,50.6304383333333,-96.98076,6.9,10.3,241,978.93,21.8,43,19.19,0.0,1004.72,360.0
2018-08-31 16:40,50.63044,-96.9807533333333,7.2,11.0,236,978.75,21.9,40,19.21,0.0,1004.51,360.0
2018-08-31 16:50,50.630445,-96.980765,6.5,10.8,225,978.69,22.1,38,19.21,0.0,1004.42,360.0
2018-08-31 17:00,50.6304483333333,-96.9807666666667,6.4,9.6,242,978.73,22.3,36,19.28,0.0,1004.43,360.0
2018-08-31 17:10,50.6304466666667,-96.98077,6.2,10.4,261,978.86,22.5,37,19.34,0.0,1004.53,360.0
2018-08-31 17:20,50.6304433333333,-96.9807683333333,6.3,10.5,251,978.89,22.5,37,19.37,0.0,1004.55,360.0
2018-08-31 17:30,50.6304433333333,-96.9807716666667,6.3,11.5,255,978.93,22.6,36,19.39,0.0,1004.57,360.0
2018-08-31 17:40,50.6304416666667,-96.980775,6.8,11.5,260,978.84,22.7,35,19.42,0.0,1004.43,360.0
2018-08-31 17:50,50.6304416666667,-96.9807733333333,7.5,10.8,256,978.76,22.7,35,19.48,0.0,1004.32,360.0
2018-08-31 18:00,50.6304316666667,-96.9807783333333,6.6,10.4,247,978.78,22.7,36,19.57,0.0,1004.32,229.4
2018-08-31 18:10,50.6304433333333,-96.9807683333333,7.0,10.9,238,978.87,22.8,34,19.56,0.0,1004.39,229.4
2018-08-31 18:20,50.63044,-96.9807766666667,6.2,11.4,246,978.92,23.1,35,19.63,0.0,1004.41,229.4
2018-08-31 18:30,50.6304366666667,-96.9807733333333,7.1,12.5,226,978.92,23.2,34,19.60,0.0,1004.40,229.4
2018-08-31 18:40,50.6304566666667,-96.9807816666667,7.9,11.6,237,979.00,23.2,33,19.52,0.0,1004.48,229.4
2018-08-31 18:50,50.63044,-96.980765,6.9,11.4,226,978.87,23.3,35,19.56,0.0,1004.33,229.4
2018-08-31 19:00,50.6304466666667,-96.9807716666667,6.8,12.6,204,978.79,23.1,35,19.68,0.0,1004.25,336.5
2018-08-31 19:10,50.6304433333333,-96.9807816666667,6.0,10.4,226,978.82,23.2,36,19.74,0.0,1004.27,336.5
2018-08-31 19:20,50.6304383333333,-96.9807833333333,6.7,11.7,231,978.77,23.5,35,19.73,0.0,1004.21,336.5
2018-08-31 19:30,50.6304366666667,-96.9807783333333,7.7,11.6,226,978.59,23.6,33,19.76,0.0,1004.01,336.5
2018-08-31 19:40,50.6304216666667,-96.9807766666667,6.7,13.3,243,978.59,23.8,33,19.77,0.0,1004.00,336.5
2018-08-31 19:50,50.6304216666667,-96.9807733333333,8.7,13.7,228,978.64,23.9,32,19.76,0.0,1004.05,336.5
2018-08-31 20:00,50.6304466666667,-96.9807666666667,5.9,11.3,224,978.46,23.9,31,19.88,0.0,1003.86,0.0
2018-08-31 20:10,50.630455,-96.9807716666667,7.4,13.7,204,978.37,23.9,31,19.88,0.0,1003.76,0.0
2018-08-31 20:20,50.63045,-96.9807716666667,6.7,13.9,248,978.30,24.3,30,19.79,0.0,1003.67,0.0
2018-08-31 20:30,50.6304383333333,-96.9807716666667,8.1,14.0,238,978.26,24.3,30,19.88,0.0,1003.62,0.0
2018-08-31 20:40,50.6304366666667,-96.980775,7.7,12.0,240,978.09,24.4,31,19.95,0.0,1003.44,0.0
2018-08-31 20:50,50.6304383333333,-96.980775,6.2,10.0,260,977.96,24.6,31,19.79,0.0,1003.30,0.0
2018-08-31 21:00,50.6304383333333,-96.9807716666667,8.0,13.1,260,977.89,24.8,31,19.81,0.0,1003.23,36.6
2018-08-31 21:10,50.6304366666667,-96.9807716666667,7.9,14.9,258,977.85,24.9,31,20.04,0.0,1003.16,36.6
2018-08-31 21:20,50.630445,-96.980805,9.0,16.4,242,978.05,24.7,29,20.08,0.0,1003.37,36.6
2018-08-31 21:30,50.6304416666667,-96.980775,11.9,17.2,236,978.18,24.5,28,20.09,0.0,1003.51,36.6
2018-08-31 21:40,50.6304366666667,-96.9807683333333,11.1,16.9,242,978.32,24.3,29,20.01,0.0,1003.65,36.6
2018-08-31 21:50,50.6304383333333,-96.9807666666667,10.5,19.0,245,978.45,24.1,29,20.33,0.0,1003.79,36.6
2018-08-31 22:00,50.63044,-96.980765,9.1,14.5,245,978.50,24.2,28,20.41,0.0,1003.84,131.7
2018-08-31 22:10,50.63044,-96.980765,7.9,12.4,235,978.36,24.0,28,20.29,0.0,1003.69,131.7
2018-08-31 22:20,50.6304383333333,-96.9807666666667,5.9,8.8,227,978.09,23.6,28,20.27,0.0,1003.42,131.7
2018-08-31 22:30,50.63043,-96.980785,5.7,9.2,221,978.17,23.4,30,20.24,0.0,1003.52,131.7
2018-08-31 22:40,50.63044,-96.980785,4.2,6.1,224,978.28,23.3,31,20.19,0.0,1003.62,131.7
2018-08-31 22:50,50.6304333333333,-96.980775,3.7,5.1,220,978.28,23.2,31,20.13,0.0,1003.62,131.7
2018-08-31 23:00,50.630435,-96.98077,3.8,5.6,223,978.19,23.2,32,20.07,0.0,1003.53,360.0
2018-08-31 23:10,50.630435,-96.980765,3.0,4.2,215,978.07,23.4,32,19.93,0.0,1003.40,360.0
2018-08-31 23:20,50.630435,-96.9807633333333,2.5,3.9,208,978.01,23.7,32,19.76,0.0,1003.33,360.0
2018-08-31 23:30,50.6304383333333,-96.980765,2.5,4.3,221,977.96,24.0,32,19.74,0.0,1003.28,360.0
